www.pogodaiklimat.ru

Погода и климат >> Архив погоды >> Россия >> Камчатский край >> Чемурнаут


ПОГОДА в Чемурнауте

  • Прогноз погоды в Чемурнауте
  • Монитор погоды в Чемурнауте
  • Климат города

АРХИВ ПОГОДЫ в Чемурнауте

Время (UTC), дата Ветер
(напр.,м/с)
 
Видим.   Явления Облачность Т
(С)
Тd
(С)
f
(%)
Тe
(С)
Тes
(С)
Комфортность P
(гПа)
Po
(гПа)
Тmin
(С)
Tmax
(С)
R
(мм)
R24
(мм)
S
(см)
06 17.05 С 2 20 км 9/9 600 м
[Sc]
+4.1 +0.7 78 +1 +2 1012.0 1010.2
09 17.05 В 1 20 км 9/9 600 м
[Sc]
+3.3 -0.2 78 +2 +2 1012.4 1010.6 +4.2
12 17.05 Ю 1 20 км 5/3 1000 м
[Sc Ci fib]
+0.7 -2.2 81 -1 -1 1012.2 1010.4
15 17.05 штиль 0 20 км 3/0
[Ci fib]
+0.5 -1.8 85 -1 -1 1009.6 1007.8
18 17.05 Ю 2 20 км 4/3 300 м
[St Cs]
0.0 -1.7 88 -4 -3 1009.3 1007.5
21 17.05 Ю 3 20 км 4/1 300 м
[St Ac trans Ci fib]
+6.3 +2.7 78 +3 +7 1008.1 1006.3 0.0 0
00 18.05 Ю 9-12
{12}
50 км 3/0
[Ci fib]
+9.2 +3.7 68 +5 +6 1007.0 1005.3
03 18.05 Ю 9-12
{12}
50 км 3/0
[Ci fib]
+9.2 +3.7 68 +5 +6 1007.0 1005.3
06 18.05 Ю 10-14
{14}
50 км ясно +9.0 +2.9 66 +4 +5 1006.1 1004.4
09 18.05 ЮВ 10-14
{14}
20 км 4/4 600 м
[Sc]
+3.5 +0.3 80 -3 -3 1005.8 1004.1 +9.7
12 18.05 Ю 9-12
{14}
20 км 8/4 600 м
[Sc Ac trans Ci fib]
+1.6 -0.9 83 -6 -6 1006.2 1004.4
15 18.05 Ю 9-12
{12}
20 км 8/6 600 м
[Sc Ac trans]
+0.6 -1.7 85 -7 -7 1006.3 1004.5
18 18.05 Ю 9-12
{12}
20 км 8/4 600 м
[Sc Ac trans Ci fib]
+0.9 -1.7 83 -7 -7 1006.4 1004.6
21 18.05 Ю 9-12
{12}
20 км 8/3 600 м
[Sc Ac trans Ci fib]
+4.7 0.0 72 -1 -1 1005.7 1004.0 +0.3 0
00 19.05 Ю 12-16
{16}
20 км 8/3 300 м
[St Ac trans Ci fib]
+6.4 +1.1 69 0 0 1004.6 1002.9
03 19.05 Ю 14-18
{18}
20 км 9/9 600 м
[Sc]
+5.2 +1.1 75 -2 -2 1004.4 1002.7
06 19.05 Ю 12-16
{18}
10 км слабый ливневой дождь 10/10 300 м
[Cb cap]
+2.8 +1.2 89 -5 -5 1004.8 1003.0
09 19.05 Ю 9-12
{16}
4000 м ливневой дождь 10/10 300 м
[Cb cap]
+1.7 +0.6 92 -6 -6 1005.2 1003.4 +6.8 4
12 19.05 Ю 8
{12}
4000 м ливневой дождь 10/10 300 м
[Cb cap]
+0.8 -0.3 92 -7 -7 1005.2 1003.4
15 19.05 ЮВ 3 10 км слабый ливневой дождь 10/10 300 м
[Cb cap]
+0.5 -0.6 92 -4 -4 1005.2 1003.4
18 19.05 Ю 4 20 км {ливн. осадки} 10/10 300 м
[St]
+0.8 -0.7 90 -5 -5 1004.7 1002.9
21 19.05 ЮВ 4 20 км 10/10 300 м
[St]
+2.8 +1.0 88 -2 -2 1004.0 1001.3 +0.3 5
00 20.05 ЮВ 6 20 км 10/10 300 м
[St]
+5.2 +1.7 78 0 0 1001.6 999.9
03 20.05 Ю 7 20 км 9/9 300 м
[St]
+5.0 +0.9 75 -0 0 997.9 996.2
06 20.05 ЮВ 12-16
{16}
20 км слабый ливневой дождь 10/10 300 м
[Cb cap]
+3.3 +1.5 88 -4 -4 994.6 992.9
09 20.05 ЮВ 12-16
{16}
10 км слабый ливневой дождь 10/10 300 м
[Cb cap]
+2.2 +0.6 89 -6 -6 991.2 989.5 +5.5 1
15 20.05 -12
{16}
4000 м ливневой дождь н/о +0.3 +1.1 100 -8 -8 985.5 983.7
18 20.05 В 12-16
{16}
10 км слабый ливневой дождь 10/10 300 м
[Cb cap]
+1.3 -0.7 87 -7 -7 988.7 986.6
21 20.05 В 9-12
{12}
2000 м ливневой дождь 10/10 300 м
[Cb cap]
+1.5 +0.4 92 -6 -6 982.5 980.8 +0.1 17 0
00 21.05 В 8
{12}
20 км в посл. час ливневой дождь 10/10 300 м
[St]
+4.3 +0.7 77 -2 -2 981.6 979.9
03 21.05 В 7 20 км 9/9 600 м
[Sc]
+5.0 +1.5 78 -0 -0 981.5 979.8
06 21.05 В 8 10 км слабый ливневой дождь 10/10 300 м
[Cb cap]
+4.9 +1.6 79 -1 -1 982.8 981.1
09 21.05 В 6 20 км в посл. час ливневой дождь 10/10 300 м
[St]
+5.0 +0.6 73 0 0 984.4 982.7 +5.3 2
12 21.05 В 3 20 км {ливн. осадки} 9/9 600 м
[Sc]
+3.6 -0.7 73 0 0 985.8 984.1
15 21.05 ЮЗ 3 20 км 9/9 600 м
[Sc]
+2.3 -1.7 75 -2 -2 987.8 986.1
18 21.05 С 2 20 км 9/9 600 м
[Sc]
+2.8 -0.3 80 -0 -0 989.5 987.8
21 21.05 С 3 20 км 9/9 1000 м
[Sc]
+3.1 -0.4 78 -1 -0 992.5 990.8 +1.9 0
00 22.05 З 4 20 км 10/10 300 м
[St]
+3.9 -0.1 75 -0 -0 992.4 990.7
03 22.05 З 5 4000 м ливневой дождь со снегом 10/10 300 м
[Cb cap]
+1.6 0.0 89 -4 -4 993.5 991.7
06 22.05 З 5 10 км слабый ливневой дождь 10/10 300 м
[Cb cap]
+2.0 +0.4 89 -4 -4 993.8 992.1
09 22.05 З 3 20 км {ливн. осадки} 10/10 300 м
[St]
+1.5 +0.1 90 -3 -3 995.0 993.2 +4.3 3
12 22.05 З 2 10 км слабый ливневой дождь со снегом 10/10 300 м
[Cb cap]
+1.5 +0.1 90 -2 -2 995.6 993.8
15 22.05 З 2 10 км слабый ливневой дождь 10/10 300 м
[Cb cap]
+1.9 +0.6 91 -2 -2 996.2 994.4
18 22.05 С 5 20 км {ливн. осадки} 9/9 600 м
[Sc diur, vesp]
+2.6 +0.5 86 -3 -3 997.1 995.4
21 22.05 С 5 20 км 9/9 600 м
[Sc]
+3.3 +0.4 81 -2 -2 999.7 997.0 +1.2 3 0
00 23.05 С 5 20 км 9/9 600 м
[Sc]
+3.6 +0.2 78 -1 -1 999.9 998.2
03 23.05 С 5 20 км 9/9 600 м
[Sc Ac trans]
+6.3 +2.9 79 +2 +3 1000.7 999.0
06 23.05 С 5 20 км 8/4 1000 м
[Sc Ac trans]
+4.3 +0.9 79 -1 0 1001.6 999.9
09 23.05 С 5 20 км 8/6 1000 м
[Sc Ac trans]
+3.9 +0.5 78 -1 -1 1003.3 1001.6 +6.5
12 23.05 С 2 20 км 9/9 600 м
[Sc]
+3.6 -0.1 77 +1 +1 1005.4 1003.6
15 23.05 СЗ 5 20 км 8/8 600 м
[Sc]
+3.2 -1.5 71 -2 -2 1006.7 1004.9
18 23.05 С 3 50 км 8/3 1000 м
[Sc Ac trans Ci fib]
+2.5 -1.4 75 -1 -1 1008.2 1006.4
21 23.05 С 2 50 км 9/3 1000 м
[Sc Ac trans Ci fib]
+3.2 -0.6 76 0 +3 1009.8 1008.0 +2.2
00 24.05 С 5 50 км 9/3 1000 м
[Sc Ac trans Ci fib]
+4.5 0.0 73 -0 +3 1010.9 1009.1
03 24.05 С 5 50 км 9/3 600 м
[Sc Ac trans Ci fib]
+5.7 +0.9 71 +2 +4 1011.6 1009.8

 

Местоположение метеостанции Чемурнаут (Камчатский край, Россия): широта 60.73 долгота 163.00 высота над уровнем моря 14 м.

В архиве по умолчанию представлена погода в Чемурнауте за последнюю неделю. Архивные данные за месяц целиком и за предыдущие месяцы, начиная с января 2011 года, Вы можете получить, выбрав интересующий диапазон дат из раскрывающегося списка и нажав кнопку "Ввод!".

Внимание! Время в таблицах - всемирное. Для получения местного времени необходимо прибавить поправку, которая в Чемурнауте равна 12 ч.

Смотрите также архив погоды в соседних городах и на ближайших метеорологических станциях:

Погода в Оссоре (Камчатский край, Россия) (167 км)
Погода в Тиличиках (Камчатский край, Россия) (167 км)
Погода в Эвенске (Магаданская область, Россия) (242 км)
Погода в Палане (Камчатский край, Россия) (252 км)
Погода в Каменском (Камчатский край, Россия) (258 км)
Погода в Усть-Воямполке (Камчатский край, Россия) (331 км)
Погода на Мысе Озерном (Камчатский край, Россия) (343 км)
Погода в Апуке (Камчатский край, Россия) (362 км)
Погода в Лабазной (Магаданская область, Россия) (370 км)
Погода в Слаутном (Камчатский край, Россия) (372 км)

Пояснения к столбцам:

Ветер - указаны скорость ветра в м/с - средняя за 10 мин, порывы в срок и между сроками (в фигурных скобках) и направление, откуда дует ветер: С - северный, СВ - северо-восточный, В - восточный, ЮВ - юго-восточный, Ю - южный, ЮЗ - юго-западный, З - западный, СЗ - северо-западный.
Видимость - горизонтальная дальность видимости в метрах или километрах. При видимости от 1 до 10 км при отсутствии осадков обычно наблюдается дымка, при ухудшении видимости до 1 км и менее - туман. В сухую погоду видимость может ухудшаться дымом, пылью или мглою.
Явления - указаны атмосферные явления, наблюдавшиеся в срок или в последний час перед сроком; фигурными скобками обозначены явления, наблюдавшиеся между сроками (за 1-3 часа до срока); квадратными скобками обозначены град или гололедные отложения с указанием их диаметра в мм.
Облачность - указаны через наклонную черту общая и нижняя облачность в баллах и высота нижней границы облаков в метрах; квадратными скобками обозначены формы облаков: Ci - перистые, Cs - перисто-слоистые, Cc - перисто-кучевые, Ac - высококучевые, As - высокослоистые, Sc - слоисто-кучевые, Ns - слоисто-дождевые, Cu - кучевые, Cb - кучево-дождевые. Подробнее классификацию облаков см. в Атласе облаков (PDF).
T - Температура воздуха - температура, измеренная на высоте 2 м над землей.
Td - Температура точки росы - температура, при понижении до которой содержащийся в воздухе водяной пар достигнет насыщения.
f - Относительная влажность воздуха - влажноcть воздуха, измеренная на высоте 2 м над землей.
Te - Эффективная температура - температура, которую ощущает одетый по сезону человек в тени. Характеристика душности погоды. При расчете учитывается влияние влажности воздуха и скорости ветра на теплоощущения человека.
Tes - Эффективная температура на солнце - температура, которую ощущает человек, с поправкой на солнечный нагрев. Характеристика знойности погоды. Зависит от высоты солнца над горизонтом, облачности и скорости ветра. Ночью, в пасмурную погоду, а также при ветре 12 м/с и более поправка равна нулю.
P - Атмосферное давление - приведенное к уровню моря атмосферное давление.
Po - Атмосферное давление - измеренное на уровне метеостанции атмосферное давление.
Tmin - Минимальная температура - минимум температуры воздуха на высоте 2 м над землей.
Tmax - Максимальная температура - максимум температуры воздуха на высоте 2 м над землей.
R - Количество осадков - Количество выпавших осадков за период времени, мм. При наведении курсора мыши на число - период времени, за который выпало указанное количество осадков.
R24 - Количество осадков - Количество выпавших осадков за 24 часа, мм.
S - Снежный покров - Высота снежного покрова, см. При наведении курсора мыши на число - состояние снежного покрова и степень покрытия местности в баллах.